Regional Weather Roundup
Issued by NWS Sterling, VA

Home | Current Version | Previous Version | Text Only | Print | Product List | Glossary On
Versions: 1 2 3 4 5 6 7 8 9 10 11 12 13 14 15 16 17 18 19 20 21 22 23 24 25 26 27
000
ASUS41 KLWX 201910
RWRLWX

REGIONAL WEATHER ROUNDUP
NATIONAL WEATHER SERVICE BALTIMORE MD/WASHINGTON DC
300 PM EDT SUN APR 20 2014

Note: "FAIR" indicates few or no clouds below 12,000 feet
with no significant weather and/or obstructions to visibility.
 TC=TEMPERATURE CELSIUS

 * =Non NWS site. Station does not report precipitation (e.g. rain,
    snow, etc.), thunder, or fog.

DCZ001-MDZ009-015-VAZ040>042-051-053>054-202000-
WASHINGTON METRO

CITY           SKY/WX    TMP DP  RH WIND       PRES   REMARKS
WASHINGTON NAT PTSUNNY   64  38  38 E12       30.37F
DULLES         PTSUNNY   60  35  39 NE8       30.36F
ANDREWS AFB    MOSUNNY   60  37  42 E7        30.37F
FT BELVOIR     SUNNY     63  33  32 NE7       30.37F
QUANTICO       SUNNY     63  36  36 NE18      30.36F
COLLEGE PARK*  MOSUNNY   61  34  36 E6        30.38F
LEESBURG*      MOSUNNY   61  37  41 SE5       30.38F
MANASSAS*      MOSUNNY   64  36  34 NE9G16    30.35F
GAITHERSBURG*  MOSUNNY   57  34  41 NE9       30.40F

$$

MDZ006>007-011-014-202000-
BALTIMORE METRO

CITY           SKY/WX    TMP DP  RH WIND       PRES   REMARKS
BWI AIRPORT    PTSUNNY   59  35  40 NE10      30.38F
MD SCIENCE CTR   N/A     59  35  40 MISG      30.40F
ANNAPOLIS      MOSUNNY   57  36  45 NE6       30.38F
FORT MEADE*    PTSUNNY   59  34  38 E12       30.40F

$$

MDZ012-015-019>023-202000-
MARYLAND EASTERN SHORE

CITY           SKY/WX    TMP DP  RH WIND       PRES   REMARKS
OCEAN CITY     MOSUNNY   52  39  61 NE21G29   30.39F
SALISBURY      SUNNY     58  36  43 NE17G25   30.38F
BAY BRIDGE AP* MOSUNNY   59  34  38 E8        30.39F
EASTON*        PTSUNNY   61  37  41 E17G23    30.42

$$

MDZ017>025-202000-
SOUTHERN MARYLAND

CITY           SKY/WX    TMP DP  RH WIND       PRES   REMARKS
PATUXENT RIVER PTSUNNY   62  36  37 NE14G21   30.36F
ST INIGOES     SUNNY     60  37  42 NE14G21   30.36F
LEONARDTOWN*   SUNNY     59  32  36 N7G16     30.38F

$$

MDZ003>005-202000-
NORTH CENTRAL MARYLAND

CITY           SKY/WX    TMP DP  RH WIND       PRES   REMARKS
FREDERICK*     SUNNY     64  39  39 SE7       30.39F
HAGERSTOWN APT SUNNY     63  34  33 CALM      30.34F
WESTMINSTER*   MOSUNNY   61  32  33 E6        30.37F

$$

MDZ501>502-202000-
WESTERN MARYLAND

CITY           SKY/WX    TMP DP  RH WIND       PRES   REMARKS
OAKLAND*       SUNNY     59   9  13 SE17      30.30F
CUMBERLAND*    SUNNY     68  28  22 SE9       30.35F

$$

VAZ025>031-202000-
SHENANDOAH VALLEY

CITY           SKY/WX    TMP DP  RH WIND       PRES   REMARKS
WINCHESTER*    SUNNY     64  34  32 SE6       30.34F
STAUNTON*      MOSUNNY   62  28  27 CALM      30.33F

$$

WVZ021-048>050-054>055-202000-
EASTERN WEST VIRGINIA PANHANDLE

CITY           SKY/WX    TMP DP  RH WIND       PRES   REMARKS
MARTINSBURG    SUNNY     64  33  31 VRB6      30.35F
PETERSBURG*    SUNNY     71  34  25 S8        30.30F

$$

VAZ036>039-050-202000-
CENTRAL FOOTHILLS

CITY           SKY/WX    TMP DP  RH WIND       PRES   REMARKS
CHARLOTTESVILL MOSUNNY   64  36  35 NE10      30.31F
CULPEPER*      MOSUNNY   68  28  22 NE8       30.34F

$$

VAZ055>057-202000-
NORTH AND CENTRAL PIEDMONT

CITY           SKY/WX    TMP DP  RH WIND       PRES   REMARKS
FREDERICKSBRG* SUNNY     66  34  30 NE13      30.33F
STAFFORD*      SUNNY     65  39  38 E10G16    30.38F

$$

NCZ024-NYZ072-PAZ021-071-VAZ022-071-202000-
OTHER REGIONAL OBSERVATIONS

CITY           SKY/WX    TMP DP  RH WIND       PRES   REMARKS
NEW YORK CITY  SUNNY     55  25  31 VRB3      30.47F
PHILADELPHIA   MOSUNNY   58  29  33 E10G18    30.42F
PITTSBURGH     MOSUNNY   69  20  15 SE10G17   30.25F
ROANOKE        MOSUNNY   67  27  22 VRB6G16   30.28F
RICHMOND       PTSUNNY   66  36  32 NE15G25   30.31F
RALEIGH        PTSUNNY   67  43  41 NE15G25   30.22F

$$

ANZ530>537-202000-
MARINE OBSERVATIONS

STATION/POSITION TIME  TEMP    WIND        PRES
                       AIR SEA DIR/SP/G
                 (UTC) (F)     (DEG/KT/KT) (MB)
THOMAS PT LIGHT  1900   56 54   90/ 10/ 12 1029.1F
BALT KEY BRIDGE  1900   55      30/ 11/ 15 1029.2F
COVE POINT       1900   55      50/ 12/ 16 1028.4S
LEWISETTA        1900   56 55   70/ 11/ 14 1027.8S
SOLOMONS ISLAND  1900      54                N/A
PINEY POINT      1900           80/ 12/ 15   N/A

$$




USA.gov is the U.S. government's official web portal to all federal, state and local government web resources and services.